Torna al catalogo

FREGAT R/B

AttivoHEO
NORAD 58585·ROCKET BODY·🇷🇺 Russia

Lanciato Dec 16, 2023 da Baikonur Cosmodrome

Loading…

Prossimi Passaggi (prossime 24 ore)

TLE

ObsoletoSource: Space-Track

Epoca: Aug 16, 2026, 01:06 UTC

1 58585U 23198B   26228.04642761  .00000126  00000-0  00000-0 0  9993
2 58585  63.2416 147.2345 6971564 266.0380  18.7487  1.99076646 19399

Traccia FREGAT R/B in tempo reale con AllMySat

Download on the App Store